This demonstration page uses our WeatherBlox Daily Observations layout. Learn more.

Left ArrowRight Arrow

Hourly Observations for May 21, 2022

Temp ( °F °C ) Dew Point ( °F °C ) Humidity (%) Winds ( mph kmh ) Pressure ( in mb ) Visibility ( mi km ) Precip ( " mm )
12:56 am 00:56 Mostly Cloudy 54 12.1 40 4.3 59 59 NNW 17 28 29.97 1015 10 16 0.00 0.00
1:56 am 01:56 Mostly Cloudy 52 11 40 4.5 65 65 NNW 15 24 29.98 1015 10 16 0.00 0.00
2:56 am 02:56 Mostly Cloudy 51 10.3 37 2.9 60 60 N 16 26 30.02 1017 10 16 0.00 0.00
3:56 am 03:56 Mostly Clear 49 9.3 34 1.2 57 57 N 9 15 30.03 1017 10 16 0.00 0.00
4:56 am 04:56 Mostly Cloudy 49 9.3 35 1.9 60 60 N 12 19 30.06 1018 10 16 0.00 0.00
5:56 am 05:56 Cloudy 49 9.2 36 2.1 61 61 N 7 11 30.10 1019 10 16 0.00 0.00
6:56 am 06:56 Mostly Cloudy 49 9.3 36 2.4 62 62 N 8 13 30.13 1020 10 16 0.00 0.00
7:56 am 07:56 Mostly Cloudy 49 9.4 37 2.5 62 62 NNW 8 13 30.14 1021 9 14 0.00 0.00
8:56 am 08:56 Mostly Cloudy 49 9.5 37 2.6 62 62 NNW 8 13 30.15 1021 10 16 0.00 0.00
9:56 am 09:56 Cloudy 50 9.9 37 2.7 61 61 NW 8 13 30.21 1023 9 14 0.00 0.00
10:56 am 10:56 Cloudy 50 10.2 37 2.8 60 60 NNW 8 13 30.22 1023 7 11 0.00 0.00
11:56 am 11:56 Cloudy 51 10.4 37 2.5 58 58 NW 12 19 30.22 1023 10 16 0.00 0.00
12:56 pm 12:56 Cloudy 51 10.7 34 1 51 51 NW 9 15 30.22 1023 10 16 0.00 0.00
1:56 pm 13:56 Cloudy 53 11.7 34 1 48 48 NW 12 19 30.22 1023 10 16 0.00 0.00
2:56 pm 14:56 Mostly Cloudy 55 12.7 33 0.4 43 43 NW 7 11 30.21 1023 10 16 0.00 0.00
3:31 pm 15:31 Mostly Cloudy 57 14 30 -1 36 36 NNW 15 24 30.20 1023 10 16 0.00 0.00
3:56 pm 15:56 Mostly Cloudy 58 14.6 29 -1.5 33 33 NW 9 15 30.20 1023 9 14 0.00 0.00
4:56 pm 16:56 Mostly Sunny 61 16.1 31 -0.6 32 32 NW 15 24 30.19 1023 10 16 0.00 0.00
5:56 pm 17:56 Mostly Cloudy 58 14.6 30 -1.1 34 34 NW 16 26 30.22 1023 10 16 0.00 0.00
5:57 pm 17:57 Mostly Cloudy 59 15 30 -1 34 34 NW 16 26 30.22 1023 10 16 0.00 0.00
6:56 pm 18:56 Sunny 56 13.6 28 -2.4 33 33 NW 14 22 30.23 1024 10 16 0.00 0.00
7:56 pm 19:56 Partly Cloudy 56 13.6 27 -2.8 32 32 NW 16 26 30.25 1024 10 16 0.00 0.00
8:56 pm 20:56 Clear 54 12 25 -3.8 33 33 NNW 12 19 30.27 1025 10 16 0.00 0.00
9:56 pm 21:56 Clear 50 10.1 27 -2.6 41 41 N 6 9 30.29 1026 10 16 0.00 0.00
10:56 pm 22:56 Clear 48 8.9 29 -1.5 48 48 Calm 30.31 1027 10 16 0.00 0.00
11:56 pm 23:56 Clear 47 8.5 31 -0.8 52 52 WNW 3 6 30.33 1027 10 16 0.00 0.00

Powered by AerisWeather